RH
9 11 13 15 17 27 36 33 31 37 47 55 59 58 60 64 45 46 78 84 84 95 91 81 75 74 86 92 90 93 94 93 96 91 76 64 67 73 65 56 45 49 69 60 35 22 11 9 11 7 7 5 5 8 7 6 5 6 6 6 8 12 16 18 17 13 8 8 9 11 13 15 18 20 22 24 25 26 24 21 20 22 22 20 19 19
10 14 17 18 22 29 31 30 25 26 40 53 59 56 55 61 52 49 75 91 88 93 97 91 82 74 74 79 78 84 94 92 90 94 91 79 72 72 71 65 52 51 70 71 53 37 18 10 12 10 8 6 6 6 7 8 6 5 6 6 6 7 10 14 16 14 10 7 7 8 9 12 15 17 19 21 24 27 26 23 22 22 22 23 22 22
12 17 19 22 24 22 21 23 21 20 29 38 47 60 67 71 68 56 63 86 94 90 93 95 93 88 77 75 74 77 89 92 91 92 94 93 86 75 71 70 61 57 75 83 67 52 35 16 11 11 10 7 6 6 6 7 7 6 5 6 6 6 7 8 11 12 10 8 6 6 7 9 12 15 18 19 21 25 27 24 22 22 23 24 25 26
11 15 15 17 19 19 18 18 19 21 25 34 52 71 83 85 83 72 65 79 93 92 91 91 92 93 87 84 81 80 85 88 90 93 90 94 98 88 73 71 68 59 73 88 73 60 53 32 14 10 11 9 7 6 6 6 6 7 5 5 5 6 7 6 6 7 7 7 6 5 6 7 9 13 17 18 18 21 26 27 25 23 23 24 24 25
8 9 8 8 10 13 16 16 18 21 26 47 70 79 86 94 91 80 71 75 88 92 91 90 89 89 87 87 84 82 85 83 87 93 90 88 97 98 82 76 80 70 69 81 74 64 60 45 25 13 10 11 9 6 6 6 6 6 6 5 5 5 6 7 7 7 6 6 6 5 6 5 7 10 14 17 17 17 22 26 28 25 23 23 25 25
6 7 9 8 9 11 15 20 21 21 25 41 63 74 84 96 96 88 79 76 81 83 85 88 87 84 82 82 80 79 81 81 86 92 92 87 90 100 93 81 85 81 70 71 72 70 69 61 46 30 15 11 11 8 6 7 6 6 6 5 5 5 5 6 6 7 8 8 8 8 8 8 9 11 13 16 17 18 19 22 26 26 23 23 24 25
9 13 14 12 16 17 19 29 36 35 33 33 43 57 70 80 88 91 87 82 80 77 79 84 84 81 78 77 76 75 76 78 82 85 87 86 87 98 100 85 80 82 74 67 69 74 76 72 63 49 30 14 11 10 6 7 7 6 6 5 5 5 5 5 5 6 7 9 10 11 12 15 16 19 20 18 18 20 21 22 24 26 25 24 25 25
16 19 19 19 24 26 26 37 46 41 38 38 41 50 61 71 77 76 72 74 76 74 77 81 83 81 76 74 74 72 72 73 76 76 77 80 83 91 99 93 82 81 79 71 68 70 73 72 66 59 48 29 16 11 8 7 7 6 6 5 5 5 5 5 5 6 6 7 9 11 14 18 19 22 23 21 21 20 19 23 25 26 28 27 27 26
22 21 22 24 27 32 35 37 32 25 27 33 35 41 51 59 64 59 54 60 63 61 67 73 76 76 70 69 71 71 71 70 71 72 70 72 75 79 90 98 91 85 83 79 72 66 65 70 66 59 58 48 28 15 10 8 7 7 7 6 5 5 5 5 5 6 7 8 10 11 13 17 18 19 19 19 22 20 17 21 24 26 28 28 27 28
26 24 25 26 26 30 32 27 17 14 21 27 26 33 40 42 52 60 58 57 50 45 55 62 62 64 60 60 65 68 71 70 69 71 69 67 70 72 78 90 96 92 88 87 83 71 63 65 66 61 63 62 44 23 13 10 7 6 7 6 6 5 5 5 5 5 7 9 13 14 14 16 17 17 17 17 20 21 18 20 23 24 25 25 24 26
28 26 26 26 24 20 17 15 13 13 19 22 23 32 39 39 45 59 63 53 38 39 49 49 47 50 48 49 55 61 67 71 71 72 69 65 67 70 70 76 87 94 95 94 91 84 70 61 64 68 67 67 58 35 17 12 9 7 7 7 6 6 5 6 5 5 8 11 14 15 15 16 16 18 18 17 18 19 18 18 21 21 20 21 22 24
30 30 31 30 26 20 15 12 11 12 15 17 20 25 34 40 39 47 56 44 28 35 42 36 32 34 34 38 46 52 59 67 71 72 71 68 67 69 70 68 71 82 94 97 94 89 78 63 62 72 72 70 70 54 27 14 11 8 7 7 7 7 6 6 6 6 8 12 15 15 15 15 16 17 18 17 18 19 18 18 20 20 18 20 22 23
35 39 44 45 41 34 28 22 15 12 12 13 15 18 27 38 40 42 49 40 28 32 35 29 25 21 21 26 32 40 49 58 66 70 70 70 69 70 74 73 68 68 79 92 97 92 84 74 68 71 73 72 76 70 43 20 12 10 8 8 7 7 7 6 6 6 8 12 15 15 15 15 15 16 17 18 19 19 20 20 21 22 19 19 22 23
39 42 47 51 49 44 37 33 29 23 20 19 19 20 24 30 34 37 41 37 31 29 27 24 22 19 20 22 24 28 34 42 54 63 69 70 70 71 75 80 78 70 67 77 92 96 88 80 74 69 70 72 75 74 57 32 17 11 9 9 8 8 8 7 6 6 8 12 15 15 15 15 14 15 16 17 18 19 21 22 22 22 21 21 22 22
45 44 46 48 50 50 44 41 42 39 36 35 32 31 32 32 33 34 35 34 34 32 27 23 22 22 24 23 23 26 28 30 35 46 58 67 70 70 71 78 84 82 72 67 78 93 92 84 76 68 66 69 69 69 63 44 24 15 12 9 9 9 8 7 7 7 7 11 15 15 15 14 15 16 18 19 19 19 20 20 20 21 21 22 21 20
49 47 49 50 48 48 46 42 42 45 48 48 46 47 46 44 42 40 39 38 38 38 33 27 26 24 23 22 24 31 37 33 27 28 36 48 61 67 66 69 77 83 82 72 70 84 95 91 79 68 63 63 61 60 62 52 33 19 14 11 9 9 9 9 7 7 7 10 14 15 15 15 15 17 19 19 18 16 16 17 17 18 19 19 19 18
49 47 48 49 46 43 43 40 35 40 47 49 51 55 55 52 49 46 45 42 40 41 38 32 32 30 28 28 30 39 47 46 39 32 26 26 38 53 59 61 64 71 80 81 75 74 86 95 89 74 65 60 55 53 58 59 44 25 15 12 10 9 9 10 8 7 7 9 12 15 15 15 16 16 16 16 16 15 15 16 15 15 15 16 17 18
47 48 44 43 44 42 41 41 34 32 38 42 47 52 52 52 51 48 46 43 40 43 41 36 38 37 33 35 40 47 54 55 54 51 44 32 23 28 43 52 55 58 64 76 81 74 72 85 92 83 73 66 59 54 55 59 53 35 19 12 10 9 9 10 9 8 7 8 11 14 15 15 16 16 16 15 15 15 16 17 17 14 13 14 16 17
40 43 42 38 41 42 41 42 38 33 35 36 38 42 43 45 48 47 46 42 38 38 35 30 33 33 32 37 43 48 53 56 55 56 60 56 38 22 24 33 41 47 52 61 75 78 70 71 78 78 73 67 61 56 51 52 56 49 31 17 12 10 9 10 9 8 8 7 9 12 14 15 15 16 17 16 16 16 16 18 19 17 16 16 17 19
34 36 40 39 40 42 41 40 40 40 38 34 32 35 38 42 46 47 46 44 42 40 33 26 25 26 29 36 40 43 49 53 54 52 56 65 62 42 24 20 24 31 42 50 63 75 76 74 75 76 76 75 73 65 48 38 46 57 49 29 16 12 9 10 11 9 8 8 7 10 12 14 15 16 17 17 17 16 16 17 18 18 18 17 19 21
36 34 39 40 40 41 41 40 39 41 42 38 33 32 34 38 42 43 43 44 45 44 39 29 25 28 32 34 36 36 39 46 52 51 49 57 69 62 40 28 25 23 30 42 53 65 73 77 77 75 80 90 93 83 60 39 34 46 54 41 23 14 10 10 11 10 9 8 7 8 10 12 14 15 16 17 16 16 16 17 17 18 19 17 17 18
41 39 39 39 38 38 39 38 36 38 41 41 37 32 30 32 35 37 40 44 46 46 45 38 37 42 44 40 38 36 34 37 46 52 49 47 62 73 60 43 37 31 31 39 47 56 67 77 77 68 72 89 99 93 83 69 46 34 44 45 30 17 13 11 11 10 8 8 7 7 8 9 11 13 14 15 15 15 15 16 16 17 18 18 18 17
42 40 37 37 37 37 38 38 37 37 38 39 37 33 30 30 31 33 37 42 44 44 43 40 41 46 46 41 38 37 35 35 41 50 52 44 56 78 77 61 53 47 43 46 51 54 63 75 77 65 64 82 97 96 94 90 69 43 37 43 39 25 15 11 11 11 10 8 7 7 7 8 9 10 12 12 13 13 13 13 13 13 13 14 17 19
45 44 41 38 36 37 37 37 37 38 39 39 38 36 34 33 31 31 34 37 39 39 37 35 38 41 41 39 36 35 36 39 42 50 52 45 51 73 81 75 71 63 52 52 59 61 65 75 77 67 66 80 92 96 95 91 80 60 43 42 46 37 24 15 10 10 12 10 8 7 6 7 8 8 10 10 10 11 11 11 10 10 10 10 11 15
48 52 51 45 42 41 41 41 42 44 45 45 44 42 40 37 33 31 32 33 35 38 38 38 40 40 38 36 34 33 36 41 46 55 58 49 45 59 73 77 79 76 62 55 63 69 70 76 79 72 73 85 92 94 96 95 88 75 57 47 48 46 39 27 12 8 12 12 11 9 7 7 7 7 8 8 9 9 9 9 9 9 9 9 11 14
51 55 55 52 51 50 49 50 51 50 49 48 47 45 41 38 35 31 30 30 32 33 33 35 40 41 39 36 35 34 34 36 41 50 58 54 44 47 60 71 81 86 76 62 63 71 74 77 80 77 76 86 94 93 94 96 92 81 65 51 45 46 46 36 18 9 10 11 13 13 10 8 7 7 7 7 7 8 8 8 9 9 10 11 13 15
50 53 54 54 56 56 56 56 54 51 50 48 46 43 40 38 35 31 28 28 27 26 25 27 31 35 39 40 42 40 36 34 34 36 43 51 49 44 47 58 75 87 85 72 63 67 74 77 80 79 75 78 86 91 94 98 95 84 71 57 47 45 46 40 27 16 11 9 11 14 14 12 9 8 8 7 7 7 8 9 10 11 13 14 16 18
46 49 50 52 54 55 56 57 54 50 45 41 38 36 37 37 34 31 29 28 26 24 24 24 24 28 32 36 41 44 41 38 36 33 33 41 50 50 46 47 61 77 84 80 70 66 70 75 78 80 76 73 74 81 91 98 99 91 79 67 56 47 42 38 34 29 20 12 9 10 13 15 13 11 9 9 9 9 9 10 11 12 14 15 19 22
43 46 47 48 51 53 54 54 51 44 37 34 34 34 36 37 35 32 31 29 28 25 24 23 23 26 29 31 34 39 40 39 39 37 34 34 42 52 54 50 53 65 76 79 75 70 68 70 74 77 76 73 70 71 76 84 94 97 86 74 67 61 50 37 32 34 32 21 14 11 10 12 15 14 13 11 11 12 12 13 13 14 14 16 19 22
46 48 47 46 49 51 53 54 50 41 35 38 41 41 40 38 36 34 32 30 28 26 27 25 23 25 29 29 28 30 33 36 37 38 37 33 34 44 54 57 54 58 68 73 74 74 71 70 71 72 73 73 71 71 69 69 83 99 94 77 70 71 67 51 35 35 37 31 27 23 13 9 11 13 15 15 13 13 13 13 14 14 15 17 19 21
51 53 50 47 47 48 51 55 52 43 38 43 49 49 46 41 37 36 34 33 32 31 32 30 27 27 27 25 24 24 26 29 31 33 35 34 32 34 43 54 57 54 58 67 73 75 76 75 73 71 71 71 71 75 74 68 74 94 101 86 73 72 75 69 51 39 36 35 37 36 26 14 10 10 12 14 15 15 15 14 14 14 14 16 17 20
55 56 53 48 46 46 49 53 52 47 44 48 53 54 51 46 42 39 38 37 36 36 37 35 31 28 26 27 28 26 24 23 23 24 28 32 33 32 35 45 55 54 54 64 74 77 78 78 76 73 70 69 68 73 79 74 71 84 98 98 92 84 78 77 68 53 42 38 36 37 35 26 16 10 10 11 12 14 16 17 16 15 15 15 15 17
57 56 54 48 45 46 48 49 50 48 48 53 56 55 53 50 47 44 42 41 40 39 40 38 32 28 27 32 37 37 31 26 22 19 21 28 32 36 38 43 50 53 54 61 72 77 78 77 76 72 68 66 64 66 74 78 75 76 83 89 96 93 81 76 77 72 62 49 37 32 33 31 24 16 12 11 10 10 12 15 16 18 18 17 17 16
60 58 54 47 45 47 49 51 52 52 54 58 58 56 55 54 51 48 46 44 43 42 40 36 31 29 29 33 41 44 40 34 27 18 15 21 30 39 44 45 47 49 50 54 63 70 73 73 74 72 67 64 62 59 63 71 75 76 75 75 83 90 85 78 78 81 77 65 49 38 33 31 29 25 18 13 11 10 10 11 12 15 16 15 15 15
64 62 56 48 45 48 50 53 55 57 60 61 59 58 57 55 53 52 50 48 45 42 39 34 31 31 31 32 37 42 41 37 31 23 19 20 26 36 43 44 44 45 45 48 54 60 65 69 73 73 69 66 65 61 59 62 67 74 78 77 80 88 92 87 83 84 85 77 66 57 49 39 32 31 27 18 12 9 8 10 11 10 11 13 13 12
68 65 59 53 51 51 52 54 58 61 60 58 59 61 59 55 52 50 49 47 43 39 37 35 34 35 34 34 36 39 40 37 32 28 26 24 25 30 37 40 41 41 41 43 46 50 55 62 69 73 72 70 69 67 65 63 64 70 76 79 81 86 92 92 89 88 90 86 80 77 74 61 45 39 34 24 20 19 9 5 9 9 7 10 12 12
70 66 62 60 58 56 57 61 64 62 59 58 61 63 61 59 55 52 51 51 48 44 42 41 40 41 40 40 40 39 39 37 33 28 27 27 26 27 30 33 35 37 38 39 41 44 48 55 63 69 71 71 70 69 69 68 69 70 73 75 77 81 88 90 89 91 94 94 92 92 94 86 70 61 53 43 46 51 31 8 5 8 9 10 11 11
72 68 67 67 65 62 63 68 68 62 59 59 62 65 65 65 63 59 58 60 56 51 49 48 47 49 49 47 44 41 40 38 34 30 28 28 26 25 24 25 26 28 31 35 38 40 43 49 57 64 67 67 66 66 66 67 69 72 74 74 74 78 87 91 90 93 96 96 96 97 99 96 90 85 81 73 75 78 62 35 17 8 6 9 11 11
75 73 71 70 69 66 65 68 68 65 62 62 64 66 67 69 70 65 62 63 61 57 54 54 53 53 51 47 44 41 40 38 34 30 29 28 26 24 22 21 20 20 23 27 33 38 42 45 52 59 64 63 61 60 60 59 62 66 71 73 72 76 86 94 95 98 99 98 99 99 96 94 91 90 92 92 90 89 83 71 56 37 21 12 9 10
79 77 73 70 70 70 70 71 70 67 66 67 67 67 66 70 71 68 66 67 64 59 56 55 55 53 50 45 42 39 38 37 34 31 30 30 29 26 22 19 18 17 17 19 25 33 41 44 47 53 58 60 58 57 56 54 55 60 65 69 71 74 80 86 89 92 95 97 99 100 97 93 89 86 87 92 94 93 90 87 85 77 61 43 32 30
85 83 79 76 75 76 78 78 75 71 69 70 70 67 65 69 71 70 71 71 63 58 57 55 53 52 49 45 40 38 38 37 35 33 33 33 31 27 23 18 16 15 15 15 18 25 35 42 45 48 53 57 57 55 54 52 52 53 56 59 65 69 72 74 75 78 82 86 89 92 92 90 88 86 86 89 94 97 95 90 87 87 85 78 70 63
92 92 89 87 84 84 85 83 78 74 71 71 71 67 64 67 70 72 75 74 69 67 69 65 58 52 47 44 41 38 37 37 37 36 35 33 29 26 22 18 16 15 15 14 14 18 26 36 42 45 47 53 57 56 54 51 49 47 46 46 51 57 62 65 66 67 68 72 78 83 85 85 85 84 82 84 89 95 97 92 86 86 89 91 88 83
95 96 96 95 92 90 89 84 78 75 73 71 73 71 66 66 69 70 74 76 75 76 76 72 66 57 47 42 42 41 40 39 39 37 35 32 30 28 23 18 15 15 16 16 15 15 19 28 36 41 43 46 52 55 54 51 48 44 40 38 39 43 49 55 58 58 58 59 62 68 73 76 79 80 79 79 82 87 91 94 93 93 94 95 94 93
95 94 96 97 95 93 92 87 80 78 77 74 73 72 69 67 66 67 71 76 78 78 76 72 67 60 50 42 40 41 42 42 39 37 34 32 31 29 24 17 13 14 15 16 17 15 16 21 28 35 38 40 44 49 52 51 47 42 39 37 35 35 37 41 44 47 47 48 49 51 55 61 66 73 79 79 78 83 89 94 98 98 97 100 98 96
94 91 92 94 93 92 93 91 85 81 80 77 75 73 71 70 68 67 72 77 79 80 79 74 67 60 54 47 41 39 39 39 39 37 34 32 33 31 25 17 12 11 13 17 19 17 16 18 23 28 33 36 37 40 44 45 43 39 37 35 34 33 32 34 40 46 45 43 41 40 43 47 52 64 79 83 82 89 95 96 97 99 98 100 100 98
90 86 84 87 89 89 88 86 82 81 82 83 82 81 79 78 76 74 77 82 81 79 80 77 67 60 57 52 46 42 40 39 40 39 35 34 33 31 26 18 11 8 11 17 22 21 18 17 20 24 29 32 34 35 35 36 37 36 36 35 33 31 29 30 41 56 61 55 44 38 42 48 50 58 75 85 83 86 95 100 100 100 100 100 99 100
92 91 89 88 91 93 92 88 85 84 85 87 89 91 91 90 87 85 86 87 81 77 77 74 66 61 59 55 50 47 45 44 43 41 38 35 33 31 26 18 10 7 8 13 20 25 24 20 18 22 26 29 31 32 31 34 37 37 37 36 34 34 37 40 46 56 68 72 64 55 55 57 54 55 68 82 84 83 90 100 102 100 100 101 100 100
91 94 97 96 94 95 95 94 92 92 92 94 97 98 97 96 95 94 92 89 82 76 74 72 67 63 60 57 53 51 49 47 45 43 39 35 33 30 25 18 13 9 6 8 14 23 30 28 21 20 23 27 29 30 34 40 42 41 41 42 45 51 61 65 61 57 63 75 82 83 78 70 67 71 79 88 96 96 95 99 101 99 100 101 99 99
83 86 93 97 97 94 93 94 96 98 100 100 97 92 89 91 95 95 93 89 83 76 72 72 71 68 64 59 55 53 51 50 48 45 42 38 35 31 27 23 19 13 8 6 8 15 27 35 32 24 22 25 27 30 40 48 47 43 44 48 55 65 73 77 75 71 71 76 86 96 95 86 88 96 93 87 93 101 99 98 100 100 99 99 99 99
84 84 86 91 96 97 96 98 99 99 101 98 91 83 82 86 91 93 91 87 82 76 74 75 75 72 66 60 55 52 51 50 47 45 42 39 37 34 31 28 24 17 10 7 6 8 17 32 40 35 28 26 26 29 38 49 50 46 45 48 58 72 80 82 85 88 85 83 88 95 95 93 100 105 97 88 92 100 99 98 100 100 98 99 99 99
93 90 85 85 90 95 98 98 96 96 97 93 84 79 80 84 89 92 91 86 81 78 77 77 75 70 65 61 57 54 51 49 46 43 40 39 37 36 32 29 25 18 11 7 7 7 9 20 36 44 39 33 30 29 34 43 50 49 46 49 61 75 81 79 83 91 92 90 90 90 88 90 97 98 94 93 97 100 99 99 100 100 99 99 100 100
Wind_Speed
10 9 9 11 14 15 15 15 14 14 13 12 12 12 12 12 14 11 7 7 7 5 5 7 8 8 8 8 8 7 7 6 6 7 8 8 8 7 7 7 7 7 7 5 4 4 4 5 6 7 8 9 9 8 9 11 11 11 11 11 12 13 14 15 15 15 15 15 14 13 13 12 11 10 10 10 10 9 9 9 10 10 10 11 11 11
10 11 13 15 17 18 17 16 15 14 13 12 12 12 12 12 14 13 9 7 6 5 5 6 7 8 8 8 8 8 8 8 8 8 8 8 9 9 9 8 8 7 8 6 4 4 4 5 5 6 7 8 8 8 8 10 11 11 11 10 11 12 13 14 14 14 14 14 13 12 11 11 11 10 10 10 10 9 9 10 10 9 9 10 11 11
11 14 16 17 19 19 18 16 16 15 14 12 11 10 11 12 13 15 13 9 7 7 7 7 6 6 6 6 6 8 9 8 8 8 8 8 9 10 10 10 9 9 9 8 6 4 5 5 4 5 6 7 7 7 7 9 11 12 11 11 10 11 12 13 14 14 14 14 13 12 12 11 10 10 10 10 10 10 10 10 10 9 9 10 10 11
13 15 17 18 18 17 16 16 15 13 12 10 10 11 12 13 14 15 14 12 11 10 10 9 8 7 7 6 5 7 9 8 7 8 9 9 10 11 11 10 9 9 9 10 7 5 5 5 4 5 6 6 6 7 7 8 9 11 11 11 11 11 12 13 14 14 14 14 13 13 13 12 11 10 10 10 10 10 10 9 9 9 9 10 10 10
11 11 12 13 14 12 11 12 12 11 11 11 12 13 13 12 14 15 15 14 14 13 11 9 9 8 8 8 7 8 8 6 6 8 11 11 10 10 11 11 10 9 9 10 9 6 5 5 5 4 5 6 6 6 7 7 8 10 10 11 11 11 11 12 13 14 14 14 14 13 13 12 12 11 10 9 9 9 10 9 9 9 9 9 9 9
7 6 7 8 9 7 7 9 9 9 10 12 14 15 14 14 14 15 15 15 15 15 13 11 10 9 9 10 10 10 9 8 6 8 10 11 10 10 12 13 13 12 10 10 10 7 5 4 5 4 5 6 6 6 7 7 8 9 9 10 10 11 11 12 12 12 13 13 13 12 11 11 11 10 10 9 8 8 9 9 9 9 9 8 8 8
4 5 6 5 5 6 7 9 9 9 10 11 14 17 16 15 15 15 16 16 15 15 13 12 12 11 11 12 12 12 12 10 8 9 10 10 10 10 12 15 15 14 13 11 11 10 8 7 7 6 5 5 6 6 7 7 8 8 9 9 9 10 11 12 12 12 12 12 12 11 11 11 11 10 10 10 10 9 10 10 10 9 9 9 8 8
4 6 6 6 6 7 8 10 13 14 13 13 15 17 17 16 16 17 17 16 16 16 14 13 13 12 13 14 13 13 13 13 11 11 10 9 10 10 12 15 16 16 15 13 12 12 11 10 9 8 6 5 5 6 7 8 8 9 9 9 9 9 10 11 12 12 12 12 12 12 12 12 12 12 12 11 11 12 12 12 11 10 10 9 9 9
5 6 8 8 8 8 11 14 15 14 13 15 16 17 17 17 16 16 15 13 14 15 15 16 17 14 14 15 15 14 14 14 13 13 11 10 11 11 12 14 16 17 16 15 14 14 13 12 11 9 7 6 5 5 7 8 9 9 10 10 9 9 10 11 12 12 12 12 12 12 12 13 13 14 14 13 13 12 12 12 12 11 11 10 10 9
6 7 7 7 7 10 14 16 15 12 12 15 16 16 16 15 15 15 13 12 12 10 12 17 19 18 15 15 17 16 14 15 15 15 14 12 12 13 13 14 15 17 18 17 15 14 14 13 12 9 7 7 6 5 6 8 9 10 10 11 11 10 10 10 11 11 12 12 12 12 12 13 13 14 15 15 14 14 13 12 12 12 11 11 10 9
9 7 8 8 9 11 13 12 11 11 13 15 16 15 16 14 13 14 14 14 11 8 10 14 17 19 17 15 17 18 17 17 17 17 15 14 13 14 14 15 15 16 18 19 17 16 15 13 12 10 8 7 6 5 6 8 9 10 10 11 11 10 10 10 11 11 11 11 11 11 12 13 13 14 15 15 15 15 14 13 13 12 12 11 11 10
10 10 11 11 10 10 10 9 8 9 12 14 14 15 16 15 15 15 16 16 11 9 11 13 14 16 15 15 16 17 19 20 19 18 16 15 14 14 14 15 16 16 17 20 20 18 16 14 12 11 10 9 8 7 7 8 10 10 11 11 11 11 11 10 11 11 11 10 10 10 11 12 13 13 14 14 14 14 14 14 14 13 13 12 12 11
11 11 11 10 7 7 7 7 6 7 9 11 12 14 14 15 17 16 17 18 14 12 15 16 14 13 12 14 14 15 18 21 21 20 18 16 15 15 14 14 16 17 17 18 21 21 18 15 14 14 14 12 11 10 10 9 10 11 11 11 11 11 11 11 11 11 11 10 10 10 10 11 12 13 13 14 14 14 14 14 14 14 13 13 12 11
8 8 8 8 6 6 6 5 4 5 6 8 10 12 13 15 17 18 19 20 17 16 17 17 16 14 11 12 13 14 17 20 21 22 20 19 18 16 15 14 14 16 16 17 19 22 21 18 16 16 16 15 14 13 12 10 10 11 12 12 12 12 13 12 12 11 11 10 10 10 10 11 12 13 14 14 14 14 14 14 14 14 13 13 12 12
6 7 8 7 8 8 8 6 6 7 6 7 9 10 12 15 16 17 19 20 19 19 18 17 17 15 12 12 13 13 16 19 21 23 23 22 20 19 17 15 14 15 16 16 17 20 22 22 19 18 18 17 17 16 13 12 11 11 12 13 13 14 14 14 13 13 12 12 11 10 10 11 12 12 13 13 14 13 13 14 14 14 13 13 13 12
8 10 10 9 9 8 8 7 6 7 7 7 8 9 10 13 15 15 17 19 19 21 21 19 17 14 12 11 11 11 14 17 20 22 24 24 24 22 20 18 16 15 15 16 16 17 21 24 22 19 19 19 18 16 14 13 13 12 13 15 15 15 15 15 15 14 14 14 12 12 11 12 12 12 13 13 14 14 14 14 14 14 13 13 13 13
10 11 11 10 9 7 6 6 4 5 6 6 7 9 10 12 14 15 17 19 19 20 21 20 18 16 13 10 9 10 12 14 17 20 22 24 26 26 24 22 19 17 16 16 17 17 19 24 25 22 20 19 18 17 16 15 15 14 14 15 16 16 16 16 16 16 16 16 15 14 13 13 13 13 13 14 14 15 15 15 14 14 14 15 14 14
12 13 12 11 10 9 7 7 6 3 4 5 6 8 9 11 13 14 16 18 19 20 20 19 18 16 13 11 10 11 13 14 16 18 20 22 24 27 28 26 24 21 19 18 18 19 19 22 26 26 24 22 20 19 18 18 17 15 14 15 16 17 17 17 18 18 18 18 17 17 16 15 15 14 13 13 14 14 15 15 15 15 14 14 14 14
14 14 13 11 10 10 8 8 8 6 6 7 7 8 8 8 9 11 13 16 18 19 20 19 17 15 12 12 13 13 14 16 17 18 19 20 22 25 28 29 28 25 23 20 19 20 21 23 26 28 28 26 23 22 21 20 19 16 14 15 16 17 18 17 18 18 19 20 19 18 18 17 16 15 14 13 14 14 15 15 15 14 14 14 14 13
15 14 12 11 10 10 9 8 8 9 10 10 10 11 10 10 11 11 12 14 15 17 19 18 16 15 14 15 16 15 15 16 17 19 20 20 20 21 25 28 29 28 26 23 20 20 23 24 24 25 27 27 25 23 22 21 21 19 16 15 16 18 18 17 17 18 19 20 21 20 19 19 18 17 16 15 15 15 15 15 15 14 14 14 14 13
15 13 12 11 11 11 10 10 10 11 13 14 13 12 12 12 13 13 13 15 15 16 17 16 14 13 15 16 17 17 16 16 16 18 20 21 20 20 22 25 27 28 28 25 23 22 23 24 24 23 25 28 29 26 22 20 20 21 19 17 17 18 18 18 18 19 20 20 21 21 21 21 20 19 18 18 17 17 16 16 15 15 14 14 14 13
12 12 13 13 13 12 12 12 12 13 15 17 16 15 14 13 14 14 14 15 16 16 16 16 13 12 15 16 16 17 16 15 15 16 19 22 21 20 20 22 24 26 27 26 25 25 23 23 24 24 25 29 33 31 26 23 21 21 20 19 18 18 19 20 20 20 20 21 21 22 22 22 22 21 21 20 20 19 18 17 17 16 15 15 14 13
9 9 12 13 13 14 14 14 15 16 17 17 18 18 17 16 15 15 15 16 16 17 18 18 16 15 16 17 16 17 17 15 14 14 17 22 22 19 18 19 20 22 24 25 25 25 24 23 23 25 26 29 35 35 30 27 24 22 21 21 20 19 20 21 22 22 20 20 21 22 23 23 23 22 22 22 21 21 20 19 18 17 17 16 15 14
10 10 12 12 13 14 15 16 16 18 18 19 20 20 20 19 17 16 16 16 17 18 19 18 17 16 17 17 16 16 16 15 14 14 16 20 23 20 18 18 18 19 22 24 24 25 25 24 23 25 26 28 33 35 33 29 26 24 23 23 22 21 21 22 23 23 22 20 21 22 22 22 23 23 23 23 23 22 21 21 20 19 18 17 15 15
13 13 13 13 13 14 15 17 18 20 21 21 23 23 22 22 20 18 17 16 17 18 18 17 16 16 17 17 17 16 15 15 15 15 15 18 22 22 19 18 18 17 19 23 24 24 25 25 24 25 26 27 31 34 35 33 30 27 25 24 24 24 23 23 23 24 23 22 22 21 21 22 23 23 24 24 24 23 22 21 20 20 19 17 15 15
16 15 14 14 15 16 17 18 20 21 22 22 24 25 23 23 22 20 18 17 17 17 17 16 15 16 17 17 17 16 16 15 16 16 15 16 21 23 21 19 18 17 18 20 23 23 23 24 25 25 26 28 29 33 36 36 34 31 28 26 26 26 24 24 23 24 24 24 23 22 22 22 23 23 24 24 24 23 22 22 21 20 19 17 16 16
18 17 16 16 17 18 19 21 22 21 21 22 24 25 24 23 22 20 18 17 17 17 16 16 15 15 17 18 17 16 16 16 16 17 17 17 19 22 22 20 19 18 17 18 21 22 21 22 24 25 26 27 27 29 33 37 37 35 30 27 27 27 26 25 24 23 24 25 25 24 23 23 23 24 25 25 24 23 22 22 21 20 19 17 16 17
21 19 18 18 20 20 21 23 23 23 23 24 25 25 24 23 22 21 19 19 19 18 17 17 15 16 18 20 19 18 17 17 17 17 18 18 18 20 22 22 21 20 18 18 20 22 22 21 21 23 24 25 26 26 29 33 36 38 34 30 29 28 27 26 25 23 24 24 25 25 25 25 25 25 25 25 24 23 22 21 21 20 19 17 16 17
24 23 22 22 22 23 24 24 24 24 24 24 24 24 23 22 21 21 21 21 21 21 20 18 16 16 18 20 21 21 20 19 18 17 18 19 20 20 21 22 22 21 20 19 20 21 22 22 21 21 22 23 24 25 27 28 31 37 38 34 32 30 28 27 26 25 24 24 24 25 26 26 26 26 26 25 24 23 22 22 21 20 19 18 18 18
27 26 26 25 24 25 25 26 26 25 24 23 23 22 21 21 21 22 22 22 23 23 23 22 19 17 18 20 22 23 23 21 20 18 18 19 21 21 22 22 23 23 22 21 21 22 23 23 22 22 22 22 23 24 26 26 28 34 39 38 35 33 31 29 27 27 26 24 23 25 27 27 27 27 26 26 25 24 23 22 22 22 21 20 20 20
29 29 29 28 27 26 26 26 27 27 26 25 24 22 21 20 21 22 23 23 24 24 25 25 22 21 21 21 21 23 24 23 22 21 20 20 21 22 23 23 23 24 23 21 20 22 23 23 23 22 22 22 23 23 24 26 27 31 37 40 38 35 35 33 30 28 27 26 24 25 27 28 28 28 27 26 25 24 24 24 24 24 23 23 22 22
33 33 33 31 30 28 27 27 27 27 27 25 24 22 22 21 22 23 24 25 25 26 27 27 26 24 22 21 21 23 23 23 23 23 23 22 22 22 23 23 23 23 23 21 20 21 23 23 23 23 23 23 23 23 23 25 27 28 33 38 39 39 38 36 34 32 29 28 28 28 29 29 29 29 28 27 26 25 25 26 26 26 26 25 24 24
37 36 35 34 31 28 27 26 25 26 26 24 22 22 22 22 23 24 25 26 27 27 28 29 28 25 22 20 21 22 22 22 24 24 25 24 23 22 22 23 23 23 23 22 22 21 23 23 22 22 23 23 24 25 24 24 25 27 30 34 38 42 42 39 37 36 33 31 31 30 30 30 31 30 30 29 28 27 27 28 27 27 27 27 26 26
38 37 36 35 32 28 25 23 23 24 23 21 21 21 21 22 23 24 25 26 27 28 29 30 29 26 24 21 19 19 21 22 24 25 25 24 23 22 22 23 23 23 23 23 23 23 23 23 22 21 22 23 24 25 25 25 25 27 29 31 35 41 44 43 41 39 37 35 33 32 31 31 31 31 31 31 30 30 30 30 29 29 29 28 28 27
39 38 37 36 33 29 25 23 22 21 19 18 19 19 19 20 21 22 23 25 27 28 28 29 28 27 25 21 18 19 20 22 24 25 25 24 23 22 22 23 23 23 23 24 24 24 24 23 22 21 22 23 24 24 25 26 26 27 28 29 32 36 42 45 44 42 40 38 36 34 32 32 31 32 33 33 32 32 32 32 32 31 31 30 29 28
37 37 37 36 34 30 26 24 23 21 19 18 17 17 17 17 18 19 20 22 24 25 26 27 27 26 25 22 20 19 20 21 23 23 23 23 23 23 23 23 23 22 23 24 25 25 25 25 24 22 22 23 23 24 25 25 26 27 27 28 29 32 37 42 44 44 42 40 38 36 34 34 33 32 33 33 33 33 33 33 33 32 31 31 30 30
36 36 36 35 33 31 28 26 26 24 22 18 16 16 17 17 17 18 18 20 22 23 25 26 27 26 25 24 21 19 19 20 21 21 21 21 21 22 23 23 23 22 22 24 25 26 25 25 25 24 24 24 24 24 24 24 25 26 27 27 27 29 33 38 41 44 44 42 40 38 37 36 35 33 32 32 34 35 34 33 33 32 31 31 31 30
35 35 34 33 32 31 30 28 29 27 23 19 16 15 16 17 19 19 18 19 21 23 24 25 26 26 26 25 23 21 19 19 19 19 19 19 19 20 21 22 23 23 22 23 25 26 26 26 26 26 25 25 25 24 24 24 24 24 25 26 27 27 29 33 36 40 43 43 42 41 40 38 37 36 35 34 37 38 35 32 31 31 31 31 31 31
35 35 34 33 34 34 32 31 31 29 25 21 18 17 16 17 19 20 18 18 19 20 22 23 23 24 25 24 24 21 19 19 19 19 19 19 19 19 19 20 22 22 23 24 25 26 27 27 27 28 26 25 25 24 24 24 24 24 23 24 25 26 28 30 31 34 39 42 43 43 42 39 38 39 38 37 39 41 39 35 32 32 32 32 33 33
38 37 37 36 36 36 35 35 34 32 28 24 22 20 18 17 18 18 17 16 17 17 19 20 21 23 24 24 24 22 19 19 19 19 20 20 19 19 19 19 20 22 23 24 25 27 28 28 28 29 28 26 25 24 24 23 23 23 23 23 24 24 26 29 30 32 35 38 41 42 42 40 39 39 39 38 39 41 41 40 37 35 35 36 35 35
40 39 38 38 36 36 36 36 36 34 31 27 25 22 19 17 18 17 17 17 16 15 17 19 20 21 23 24 23 22 20 20 20 20 21 21 20 20 20 19 20 22 23 24 26 28 29 30 29 29 29 28 26 24 24 23 22 21 21 21 21 23 26 29 31 32 33 35 38 40 41 42 41 39 38 39 41 42 43 43 42 41 40 38 37 37
42 40 39 38 37 36 37 38 38 37 33 29 27 25 21 20 20 18 18 19 18 17 19 21 21 22 23 23 23 23 22 21 21 21 22 22 22 21 20 20 20 21 23 24 26 27 30 31 31 30 30 30 29 27 25 24 22 20 18 18 19 22 25 28 29 31 33 34 36 37 39 41 41 39 39 40 42 44 45 45 45 46 46 43 40 40
43 42 42 41 39 39 39 40 39 37 33 30 29 28 25 23 22 20 20 20 21 21 21 22 23 23 24 23 23 23 22 21 22 22 23 23 23 21 20 20 21 21 23 24 25 27 29 31 32 31 31 31 30 29 28 25 23 21 19 18 18 20 23 26 28 30 31 33 35 36 37 38 39 40 40 41 43 45 47 48 48 48 47 47 45 44
43 44 44 44 43 42 43 43 40 37 34 32 31 29 27 26 24 21 20 21 22 23 22 22 22 23 23 23 23 22 22 22 23 23 24 23 23 22 20 20 21 21 22 23 24 25 28 30 32 32 32 31 31 31 30 28 26 24 22 21 20 20 21 23 25 28 31 32 33 35 36 37 37 37 38 41 43 46 47 48 50 49 48 48 49 48
43 44 45 46 45 44 44 44 42 40 38 36 33 31 30 28 27 24 22 21 23 23 22 21 21 22 22 22 22 22 22 22 23 24 24 24 23 22 21 20 20 20 20 21 22 23 25 28 31 32 32 32 31 30 30 29 28 26 25 24 22 20 19 20 22 25 28 31 33 34 36 37 37 36 36 38 42 45 47 49 50 50 49 49 48 48
42 43 43 43 43 43 42 42 42 41 40 39 37 35 33 32 30 28 26 25 24 24 23 22 21 21 20 20 21 21 21 22 23 24 24 24 24 23 22 21 20 20 20 20 20 21 22 25 28 31 32 32 32 31 29 28 27 26 25 24 22 20 19 20 20 21 22 26 30 33 36 36 36 35 37 38 39 42 46 49 50 49 49 48 47 47
43 42 42 41 41 41 40 40 41 41 41 41 40 38 36 34 33 31 29 27 26 25 24 23 22 21 20 20 20 20 21 21 22 23 23 24 23 23 22 21 20 19 19 19 19 19 20 22 25 29 31 31 31 30 28 26 25 24 24 23 21 20 19 19 20 20 21 22 24 28 32 34 33 34 35 35 37 41 44 48 50 47 46 46 46 45
44 43 43 43 41 40 39 39 40 41 41 40 39 37 35 33 32 31 29 27 25 24 23 23 23 21 20 20 20 20 20 21 22 23 23 23 22 22 21 21 20 19 19 19 19 19 19 20 22 25 28 30 30 29 27 24 23 23 22 21 19 17 17 17 18 21 22 22 21 21 22 24 26 29 29 30 35 40 43 44 44 42 41 44 45 45
44 43 43 44 43 41 40 40 39 38 37 36 34 33 32 30 28 27 26 25 23 22 22 22 22 21 21 21 21 21 21 21 22 22 22 22 22 21 21 21 21 20 20 20 20 19 19 19 19 22 26 28 28 28 26 24 22 22 22 20 18 17 17 17 18 19 20 20 19 18 17 18 20 24 27 29 32 35 36 37 36 34 34 39 42 44
40 40 41 41 39 37 36 36 35 34 33 33 32 31 29 27 25 25 25 24 22 20 20 21 22 22 22 21 21 22 22 22 22 22 22 22 22 22 22 22 21 21 21 20 20 19 19 18 18 20 23 26 27 27 26 24 23 22 21 20 19 18 18 17 17 18 19 21 22 23 23 25 27 29 30 32 33 32 34 36 36 34 33 34 36 38
35 37 38 37 35 33 33 34 35 35 34 33 32 30 28 26 24 24 24 23 22 21 21 22 22 22 22 21 22 22 23 23 22 22 22 22 22 23 23 22 21 21 22 21 20 19 19 18 18 18 20 22 24 25 25 25 23 22 20 20 20 20 20 19 18 19 20 22 25 28 30 30 30 31 31 30 30 29 29 29 29 30 32 32 32 33
Wind_Direction
206 189 187 196 200 202 208 210 212 217 214 213 221 230 233 239 245 229 193 200 197 184 204 204 198 194 185 182 183 186 188 184 181 189 189 178 173 174 175 187 190 161 159 174 140 118 113 114 117 115 115 118 123 133 140 140 135 130 128 128 131 136 139 143 148 152 153 152 150 147 144 142 139 138 136 133 131 131 129 122 119 126 137 143 146 149
186 183 190 193 197 201 208 213 217 220 219 220 226 238 246 247 252 241 211 205 207 199 226 222 204 207 203 189 184 186 192 195 193 193 199 195 184 181 179 184 198 178 158 174 172 135 121 117 121 120 120 124 128 135 143 146 143 139 137 135 134 135 139 143 149 154 157 156 155 152 149 147 143 141 141 140 141 141 135 127 124 131 138 144 151 155
178 183 192 197 203 206 207 211 216 220 220 224 231 240 247 244 246 243 226 209 209 217 232 238 226 222 219 206 193 189 194 204 206 200 204 210 198 191 188 179 193 199 172 173 190 169 132 121 129 132 129 133 137 143 148 149 148 146 145 145 144 143 143 147 151 156 159 160 159 157 156 155 152 150 149 149 152 149 138 132 133 139 144 150 156 160
183 190 200 206 213 212 205 207 213 215 213 214 219 223 230 230 229 234 231 218 215 222 229 237 240 237 230 221 211 200 198 208 217 213 209 214 207 198 199 185 184 205 190 175 188 191 159 139 141 146 140 141 148 154 157 155 153 151 152 154 154 155 154 154 157 159 161 164 165 166 166 164 162 162 159 158 160 153 143 141 146 149 152 154 156 160
192 201 213 218 222 217 204 205 208 205 201 200 206 214 218 222 226 231 233 226 224 227 230 237 244 247 241 229 226 220 212 213 217 216 213 213 209 198 203 198 186 200 197 179 183 197 184 153 147 155 149 149 158 165 168 165 160 155 156 159 161 164 165 165 166 166 167 170 173 175 176 173 171 171 169 168 168 160 153 157 162 162 161 158 155 158
198 208 220 222 222 221 214 211 210 204 201 203 210 218 218 217 225 230 231 229 230 233 234 239 246 253 252 239 233 230 227 228 213 205 208 208 205 195 202 206 195 193 197 186 181 191 196 174 166 170 162 160 165 172 177 176 171 163 159 162 167 170 173 173 175 176 176 176 179 182 184 181 179 178 176 176 176 168 165 171 175 174 172 166 164 164
193 200 207 210 208 218 223 222 226 227 224 225 223 222 221 221 224 228 229 229 233 237 235 238 243 249 254 247 238 233 231 233 216 197 196 200 207 202 199 208 204 194 193 191 187 188 193 194 191 187 176 171 174 179 183 184 181 174 166 166 171 175 179 179 178 181 182 181 180 182 185 185 183 183 182 182 183 179 177 183 185 184 180 176 175 176
183 188 189 190 199 216 228 228 234 237 235 237 230 221 219 222 227 232 233 234 238 240 239 241 241 243 253 251 245 239 236 237 227 209 201 201 212 212 201 206 210 201 195 193 194 194 194 198 201 193 182 182 187 187 190 191 188 184 176 170 173 178 183 184 182 182 186 187 184 185 188 189 188 187 186 186 190 190 187 187 188 188 187 185 184 186
191 198 194 194 205 221 235 238 242 244 237 232 227 222 221 222 227 235 237 239 244 244 243 246 243 240 250 255 250 247 243 242 238 228 223 217 215 216 209 208 211 209 203 198 199 199 197 200 205 199 185 187 198 196 196 197 194 190 185 177 175 180 186 190 189 186 188 192 193 192 193 196 194 191 190 190 193 196 194 191 190 190 191 192 191 193
204 211 201 200 219 228 233 237 243 246 237 232 228 226 229 226 228 237 244 247 249 251 249 249 247 241 245 253 252 250 247 245 244 239 234 227 216 214 214 214 213 213 211 207 204 204 201 201 205 202 193 192 199 202 202 203 200 195 193 186 179 181 189 195 195 193 191 195 200 198 196 197 197 196 195 193 193 196 198 196 195 196 196 197 197 199
198 196 188 192 210 218 218 219 226 230 229 233 234 236 241 242 240 242 249 253 252 254 256 254 250 242 239 247 250 249 248 246 246 245 239 232 222 216 215 218 220 218 215 213 211 210 207 203 202 201 203 205 202 204 209 209 205 200 197 195 186 182 191 199 200 201 199 201 205 202 197 197 198 199 199 198 197 198 199 200 201 203 202 202 203 203
182 176 179 188 201 211 215 213 213 218 224 233 239 244 249 253 258 255 255 261 260 258 262 261 254 243 238 242 245 246 246 245 246 247 245 240 233 226 220 219 224 224 220 218 218 217 212 206 201 201 205 209 206 208 215 215 211 207 202 201 195 186 191 202 204 205 205 206 208 204 198 196 196 198 200 201 201 200 202 205 206 208 208 206 206 206
177 174 172 175 190 209 221 226 223 222 229 237 244 252 254 257 264 267 265 267 269 266 265 265 260 252 247 245 244 246 245 244 246 247 246 245 241 237 230 222 225 229 226 221 220 222 219 209 203 204 204 205 207 210 214 216 214 212 207 204 203 195 193 201 207 208 207 208 208 204 199 197 196 196 198 201 201 199 203 207 207 208 210 209 206 205
176 179 178 172 181 210 227 225 218 223 232 245 254 260 265 267 270 271 270 271 275 273 268 268 268 266 261 254 252 252 249 245 245 245 243 243 242 240 237 228 224 229 232 226 221 224 225 216 205 204 205 204 208 212 211 212 214 213 211 208 206 203 199 200 205 208 208 209 208 204 200 198 197 196 195 198 200 199 201 205 205 205 206 205 202 199
178 186 204 198 187 209 234 226 207 210 215 232 253 262 269 273 273 273 272 273 277 278 275 275 276 274 274 273 267 262 256 249 246 245 242 241 240 240 238 234 227 226 232 233 225 222 227 226 214 205 206 207 210 213 212 210 211 212 212 210 208 208 205 201 202 204 206 208 207 203 200 199 197 195 194 193 194 194 196 199 199 198 196 197 195 192
197 195 211 217 208 218 241 237 216 209 213 227 246 255 263 270 273 274 275 276 279 282 283 284 287 289 290 284 274 268 265 258 252 249 246 242 240 240 238 236 232 228 231 237 234 225 224 229 225 213 208 210 212 214 215 214 211 209 210 210 210 210 208 205 202 202 203 205 204 202 200 199 196 193 191 189 187 186 188 190 191 189 187 188 189 188
213 211 218 225 233 245 251 252 242 216 227 247 245 244 253 262 267 270 272 275 277 279 282 284 289 294 293 284 274 271 274 270 262 257 253 246 241 240 240 237 234 231 229 233 238 233 225 227 230 223 213 213 214 213 216 218 215 210 208 209 210 210 210 208 204 201 202 203 203 201 199 198 197 193 190 188 184 180 180 182 184 184 183 184 185 184
221 226 232 234 246 260 260 266 275 264 265 276 260 255 262 264 263 263 265 269 271 272 273 275 280 283 284 280 271 266 267 269 265 262 260 255 246 242 241 241 238 235 233 230 233 237 231 224 228 228 220 214 214 213 214 218 219 213 209 210 211 211 211 212 208 202 201 203 203 201 198 197 198 196 192 189 184 179 179 180 181 183 182 182 183 184
225 224 231 235 243 258 265 271 282 294 304 303 297 297 299 293 282 274 269 269 270 271 271 271 272 273 277 277 270 262 259 260 261 258 257 257 253 246 243 242 242 240 239 235 232 236 238 231 227 227 223 215 213 214 213 214 218 217 213 211 212 212 212 213 213 208 204 204 204 203 201 199 198 198 195 192 189 186 183 183 185 185 184 184 186 187
237 231 233 234 238 254 269 278 289 299 303 305 308 312 315 313 305 297 288 282 278 276 274 272 270 269 272 271 268 265 260 257 258 257 254 255 256 253 247 246 246 244 242 241 239 239 242 242 238 235 231 222 216 218 218 214 213 214 214 213 213 213 212 211 213 213 210 208 206 205 204 202 200 199 198 197 198 196 192 191 192 191 192 192 192 194
248 249 247 245 244 253 266 276 287 293 296 299 303 308 310 308 304 300 296 291 286 282 278 275 272 273 272 268 268 269 265 260 260 259 256 254 255 255 251 249 249 247 244 243 244 243 241 241 240 238 237 227 218 221 227 225 219 213 209 210 213 214 211 210 212 213 212 211 209 208 207 205 202 201 200 201 203 204 201 200 200 199 200 202 202 201
253 258 258 254 253 257 262 269 278 285 289 293 298 304 308 306 303 302 302 297 290 288 284 280 278 279 276 274 276 277 274 270 266 264 259 253 252 255 254 250 249 248 247 245 245 247 246 242 237 236 235 225 217 218 224 227 228 224 214 208 211 213 212 211 212 213 213 212 211 212 210 208 206 203 203 204 205 207 207 207 208 207 208 209 209 207
246 257 262 260 258 260 265 270 276 281 285 291 297 301 305 307 307 306 304 299 293 292 290 285 281 279 278 280 284 284 282 278 271 267 261 253 249 251 255 255 251 248 248 247 246 250 251 247 239 237 236 226 217 218 221 223 225 227 223 215 211 212 214 214 212 212 213 212 213 214 213 212 209 207 206 207 208 208 209 211 212 212 213 213 212 209
236 254 264 267 264 262 266 271 276 281 288 293 296 297 299 302 304 303 299 295 292 292 292 289 286 282 279 281 285 286 286 282 275 269 262 253 247 247 251 256 254 248 244 243 245 248 251 250 243 238 236 228 221 221 223 224 223 224 225 223 218 215 215 217 216 213 211 212 214 216 216 215 214 211 211 211 212 211 211 212 213 214 215 215 212 211
237 254 258 260 264 265 268 274 277 282 286 289 289 291 294 296 297 298 295 292 291 292 292 292 291 286 281 280 283 284 284 282 277 272 266 254 246 244 246 251 254 251 242 238 240 245 250 250 245 239 235 229 225 223 224 226 226 223 222 223 224 220 218 219 219 216 213 212 214 215 216 217 216 215 215 215 215 214 212 213 214 214 216 213 209 211
240 251 252 252 259 265 269 273 274 276 278 280 281 284 287 289 291 292 292 292 291 290 290 290 290 288 284 280 279 278 277 276 273 271 269 259 248 244 244 248 253 254 247 238 237 242 249 250 247 243 237 232 228 225 223 226 228 226 221 220 223 223 221 221 221 220 217 214 213 215 216 218 218 217 217 217 218 217 215 214 214 214 215 212 209 213
239 248 252 255 259 263 266 268 269 271 273 275 276 279 282 284 285 286 288 290 288 285 285 284 284 288 285 279 274 272 270 270 269 268 267 264 254 247 244 246 250 254 253 245 239 239 245 249 248 247 244 241 238 233 228 228 231 230 225 221 222 223 223 222 222 223 223 220 216 215 216 218 220 220 219 218 219 218 217 217 217 217 217 215 213 217
246 252 257 260 265 268 268 268 270 272 272 271 271 274 277 279 280 283 287 289 288 286 286 284 283 288 286 278 272 269 267 266 267 267 267 266 262 253 247 245 247 252 254 251 246 243 243 245 245 246 248 248 248 244 237 234 233 232 229 225 224 225 225 222 220 221 225 226 222 219 218 219 221 222 223 222 221 220 220 221 221 222 222 219 217 220
257 260 262 264 270 274 273 273 275 277 276 272 269 270 272 275 278 282 285 287 287 289 293 292 290 290 285 278 273 268 266 266 265 266 266 265 263 258 253 248 246 250 253 252 250 249 247 246 245 243 245 248 251 250 246 242 238 234 231 228 225 225 227 226 222 219 221 226 228 226 223 221 222 224 226 225 225 224 223 224 224 224 224 220 219 222
261 263 266 269 273 276 277 279 281 281 279 277 275 272 271 272 275 279 282 284 286 290 293 294 295 293 285 278 274 269 265 265 265 266 264 261 260 258 256 252 248 248 251 252 250 250 251 250 249 245 243 245 249 251 250 247 243 235 230 230 229 226 227 229 226 221 219 220 226 231 229 225 224 225 227 228 228 228 227 227 227 227 226 224 222 224
261 264 267 270 272 274 276 278 280 280 278 277 276 274 272 271 272 275 278 280 283 287 289 290 292 293 288 283 278 271 265 263 264 264 263 261 258 256 255 253 250 248 249 252 253 252 251 252 251 249 246 245 248 251 250 248 245 235 227 229 233 232 230 230 229 226 222 217 219 227 231 229 226 224 225 227 229 230 230 230 230 230 230 228 227 227
262 265 267 270 272 273 272 273 274 274 273 272 271 271 271 270 270 271 273 276 279 281 283 285 288 290 292 289 282 273 266 263 260 260 261 260 258 256 254 253 252 250 249 251 252 252 251 250 250 249 247 246 246 249 250 248 246 239 228 227 232 236 236 233 231 230 227 222 220 222 227 230 229 226 224 223 225 228 230 231 231 231 231 231 230 231
261 264 267 270 272 272 270 269 269 270 270 268 267 267 267 267 267 268 269 271 274 275 277 280 284 287 291 291 284 274 267 262 259 257 258 259 259 258 255 254 253 251 248 248 248 248 247 247 248 248 248 247 245 246 249 249 247 243 237 233 234 237 238 236 234 234 233 230 227 225 226 229 232 231 227 223 222 223 226 229 231 232 233 233 232 233
261 264 267 270 272 272 270 269 271 273 273 271 269 268 268 269 268 267 267 267 269 272 275 277 280 283 285 285 279 270 265 263 261 259 258 259 260 258 256 254 253 251 248 245 244 244 245 245 245 245 247 248 247 246 246 247 248 246 244 242 240 239 238 237 236 235 236 236 234 231 229 230 232 235 234 229 225 223 224 226 228 231 232 233 234 235
259 264 267 270 272 273 271 271 274 275 272 270 272 274 273 272 269 266 265 265 266 269 271 274 276 278 280 279 272 263 259 259 261 262 262 263 262 258 255 254 253 251 248 245 243 242 242 243 243 241 242 245 247 247 246 245 246 247 247 246 245 241 237 236 236 235 235 237 238 237 235 233 233 235 237 236 231 228 227 227 228 229 231 232 233 235
256 260 265 268 271 273 272 272 274 273 268 267 271 276 277 274 269 264 263 264 265 267 269 272 275 279 281 279 272 263 256 255 258 261 263 264 263 259 256 254 253 251 248 246 244 242 240 241 241 239 237 239 242 246 246 246 245 246 247 247 246 243 238 237 237 236 234 235 236 238 240 239 236 235 238 241 240 236 233 232 232 233 233 234 234 234
254 257 262 265 268 270 271 272 273 270 267 265 268 275 279 277 272 267 266 267 269 270 273 276 280 283 284 281 275 268 261 258 260 261 262 262 262 260 258 256 254 252 249 247 246 244 242 240 240 239 236 235 238 241 244 245 244 244 246 247 248 246 241 237 238 238 234 232 233 236 240 242 240 237 237 242 245 244 242 240 239 238 238 238 239 239
252 255 258 261 265 267 267 268 270 270 269 268 269 275 279 279 278 275 273 274 274 275 278 280 282 283 282 278 273 268 263 262 263 263 262 262 261 259 258 258 257 254 250 247 246 246 245 241 239 239 237 234 236 238 240 242 241 242 244 245 246 246 241 236 236 235 231 230 232 235 239 241 240 239 237 238 239 240 242 246 247 247 246 245 245 245
249 252 254 257 260 263 265 267 270 272 272 270 270 273 275 278 280 279 279 282 281 279 279 280 279 278 276 273 269 265 262 262 264 264 264 264 263 261 259 260 260 258 253 249 246 245 246 244 240 239 237 235 235 237 239 240 240 240 241 242 243 244 240 234 231 230 228 229 231 235 238 240 239 240 240 238 234 234 238 244 246 246 247 248 248 248
247 250 253 256 258 261 265 268 271 272 272 270 271 272 273 277 281 282 284 285 280 277 277 277 276 275 273 271 268 264 260 260 263 265 266 266 266 266 265 264 264 263 258 252 246 244 244 244 242 239 238 236 235 237 239 241 241 240 239 241 241 241 240 237 233 230 228 230 233 236 239 241 242 242 242 240 237 237 239 243 244 242 241 241 243 245
247 250 253 256 258 260 264 267 270 271 270 269 270 270 271 276 281 285 288 285 281 281 281 279 277 275 273 270 267 263 260 260 262 265 266 267 267 267 268 269 268 267 264 257 250 245 243 243 243 241 239 238 237 237 238 239 240 241 241 242 241 241 242 241 238 236 235 235 236 238 239 240 242 243 243 241 239 239 240 244 246 245 242 238 237 240
248 250 253 255 257 258 261 264 267 268 267 267 269 271 273 276 279 284 289 288 286 287 286 283 280 276 273 271 267 263 261 260 261 263 265 267 268 269 270 272 271 270 268 263 256 248 244 243 242 241 240 239 238 239 239 239 240 241 243 246 245 243 242 243 243 242 241 240 241 240 240 240 241 242 243 243 242 241 241 243 245 246 245 240 237 239
247 249 251 254 256 258 261 263 265 266 265 266 268 271 273 275 277 283 290 289 285 284 283 282 279 275 274 272 268 264 261 260 260 261 264 266 269 271 273 274 274 274 272 267 261 254 247 244 243 242 241 241 240 241 241 242 242 243 247 250 249 246 244 243 244 245 244 244 245 244 242 241 241 240 241 242 243 243 243 244 244 245 245 243 239 239
245 247 249 253 255 257 261 263 264 264 264 264 265 268 271 275 279 283 288 287 282 279 279 279 277 276 275 273 270 265 261 259 259 260 263 265 268 270 273 275 276 277 275 272 267 259 251 245 243 243 243 243 243 243 244 245 247 248 251 253 252 250 247 244 245 247 247 246 247 247 246 244 244 243 241 241 243 244 245 246 246 247 249 247 243 242
241 245 247 251 255 257 258 259 259 260 261 262 265 269 273 277 280 283 287 287 280 275 275 275 275 277 277 275 271 265 261 258 257 259 262 265 267 270 273 275 276 276 277 275 271 265 256 249 245 243 243 244 245 246 246 248 250 252 255 257 257 256 252 248 247 248 249 248 247 247 247 245 245 245 243 242 243 245 247 247 246 248 249 248 245 242
239 244 247 249 253 256 255 254 255 258 260 263 266 270 273 276 278 281 285 286 279 271 269 270 273 276 279 278 273 267 262 259 258 259 261 263 265 269 272 274 274 276 276 275 273 269 262 253 247 244 244 244 245 247 248 250 252 254 256 258 259 259 256 252 248 247 249 248 245 243 244 244 244 244 244 245 246 247 248 248 248 247 247 246 244 240
240 244 248 249 252 254 256 256 257 258 260 263 266 269 272 274 276 278 282 284 277 268 264 267 271 275 277 277 274 269 264 261 260 261 261 262 264 268 271 272 273 275 277 276 274 271 267 259 251 245 244 245 246 248 249 250 251 252 253 254 256 259 262 260 254 250 249 249 245 239 239 241 243 243 245 248 251 252 251 250 251 249 245 243 242 239
240 242 246 249 251 252 255 258 259 259 260 262 265 267 269 271 274 276 278 278 273 265 262 266 271 274 274 274 273 270 265 262 261 261 262 262 264 265 268 270 271 273 276 277 276 273 269 264 256 248 245 245 246 248 249 248 247 247 247 247 247 253 262 264 258 250 247 246 242 235 235 243 249 250 250 248 247 249 249 250 252 250 244 241 240 238
241 241 244 248 250 252 254 257 260 259 258 259 261 263 265 267 269 270 271 271 268 261 260 266 271 272 271 272 272 270 268 265 263 263 263 263 263 264 266 269 272 272 272 273 275 274 271 267 261 252 246 244 245 246 247 246 245 243 242 240 240 246 255 257 252 245 238 235 233 229 230 234 234 236 244 246 243 244 249 252 253 249 240 237 237 235
242 243 244 247 250 250 250 251 251 250 251 255 258 260 260 260 261 263 265 266 263 258 260 266 269 268 268 269 268 268 268 267 266 266 265 264 264 264 266 268 270 269 268 269 271 272 271 268 263 257 250 246 245 245 245 246 248 245 241 237 236 238 243 246 245 240 232 227 225 222 222 219 211 214 231 246 247 248 252 254 252 245 237 233 233 234
243 244 243 244 245 243 242 243 245 247 251 255 256 255 254 254 256 259 261 262 261 261 263 265 264 264 265 264 264 263 264 264 265 265 265 264 264 264 265 265 265 265 265 265 267 270 271 268 264 259 255 250 247 245 244 246 248 248 243 239 237 236 238 240 241 237 231 228 226 223 222 223 221 222 232 243 247 248 251 251 247 242 239 239 241 242